Regional Weather Roundup
Issued by NWS

Home | Current Version | Previous Version | Graphics & Text | Print | Product List | Glossary On
Versions: 1 2 3 4 5 6 7 8 9 10 11 12 13 14 15 16 17 18 19 20 21 22 23 24 25 26 27 28 29 30 31 32 33 34 35 36 37 38 39 40 41 42 43 44 45 46 47 48 49 50
000
ASUS43 KOAX 241602
RWRNE

WEATHER ROUNDUP FOR NEBRASKA
NATIONAL WEATHER SERVICE OMAHA NE
1100 AM CDT SUN JUL 24 2016

NOTES: SATELLITE DATA IS BEING USED TO AUGMENT CLOUD COVER ABOVE
       12000 FEET.
       "FAIR" INDICATES FEW OR NO CLOUDS BELOW 12,000 FEET WITH NO
       SIGNIFICANT WEATHER AND/OR OBSTRUCTIONS TO VISIBILITY.

  * THESE STATIONS DO NOT REPORT WEATHER SUCH AS RAIN...SNOW OR FOG.

NEZ001>004-019>022-054>056-241700-
NEBRASKA PANHANDLE

CITY           SKY/WX    TMP DP  RH WIND       PRES   REMARKS
SCOTTSBLUFF    MOSUNNY   77  54  44 E15       30.16R
ALLIANCE       SUNNY     74  55  51 E17       30.17R
CHADRON        SUNNY     77  49  37 E12       30.16F
KIMBALL        MOSUNNY   77  54  45 SE14      30.20R
SIDNEY         MOSUNNY   74  50  42 SE21G32   30.16S
$$

NEZ057>060-069>072-079>082-241700-
SOUTHWEST NEBRASKA

CITY           SKY/WX    TMP DP  RH WIND       PRES   REMARKS
NORTH PLATTE   MOSUNNY   77  57  50 NE9       30.15R
IMPERIAL       SUNNY     79  53  40 E14       30.14S
LEXINGTON      CLOUDY    78  60  53 NE7       30.12R
MCCOOK         CLOUDY    84  59  42 E20       30.09R
OGALLALA       MOSUNNY   81  49  32 NE13G18   30.17S
$$

NEZ005>010-023>029-035>040-094-241700-
NORTH CENTRAL NEBRASKA

CITY           SKY/WX    TMP DP  RH WIND       PRES   REMARKS
VALENTINE      CLOUDY    77  49  37 CALM      30.14R
AINSWORTH      CLOUDY    75  57  52 E3        30.14R
BROKEN BOW     CLOUDY    77  62  59 CALM      30.13R
O`NEILL        MOSUNNY   77  57  50 NE8       30.08R
ORD            CLOUDY    76  63  64 NE5       30.08R
THEDFORD       CLOUDY    78  56  46 NE7       30.18R
$$

NEZ041-046>049-061>064-073>077-083>087-241700-
SOUTH CENTRAL NEBRASKA

CITY           SKY/WX    TMP DP  RH WIND       PRES   REMARKS
GRAND ISLAND   CLOUDY    78  63  59 VRB5      30.05F
AURORA         MOSUNNY   79  62  56 E5        30.05S
HASTINGS       PTSUNNY   78  64  61 E12       30.06S
HEBRON         PTSUNNY   79  66  63 N8        29.99R
HOLDREGE       CLOUDY    77  61  56 E15       30.05S
KEARNEY *      CLOUDY    77  63  61 E7        30.07R
YORK           CLOUDY    77  66  69 CALM      30.05R
$$

NEZ011>018-030>034-042>045-241700-
NORTHEAST NEBRASKA

CITY           SKY/WX    TMP DP  RH WIND       PRES   REMARKS
NORFOLK        CLOUDY    81  62  52 N7        30.04R
ALBION         CLOUDY    77  64  62 NE7       30.05S
BLAIR          PTSUNNY   82  67  59 NE5       30.00R
FREMONT        MOSUNNY   82  61  48 NE5       30.01R
TEKAMAH        MOSUNNY   84  65  52 N9        29.99R
WAYNE          SUNNY     81  66  59 N9        30.03S
$$

NEZ050>053-065>068-078-088>093-241700-
SOUTHEAST NEBRASKA

CITY           SKY/WX    TMP DP  RH WIND       PRES   REMARKS
LINCOLN        PTSUNNY   83  69  62 N6        30.01R
OMAHA EPPLEY   PTSUNNY   86  65  49 N14       29.97R
BEATRICE       PTSUNNY   84  67  56 NE6       29.97S
FALLS CITY     PTSUNNY   89  79  72 N9G17     29.91S HX 104
NEBRASKA CITY  CLOUDY    83  73  70 N9        29.96S
PLATTSMOUTH    PTSUNNY   84  69  60 N7        29.98R
$$

NEZ044-045-051>053-067-241700-
OMAHA AREA

CITY           SKY/WX    TMP DP  RH WIND       PRES   REMARKS
OMAHA EPPLEY   PTSUNNY   86  65  49 N14       29.97R
BLAIR          PTSUNNY   82  67  59 NE5       30.00R
FREMONT        MOSUNNY   82  61  48 NE5       30.01R
MILLARD        PTSUNNY   85  62  46 NE7       29.98R
OFFUTT AFB     PTSUNNY   84  65  51 NE8       29.98R
PLATTSMOUTH    PTSUNNY   84  69  60 N7        29.98R
WAHOO          FAIR      82  67  59 N6        30.00R
$$



USA.gov is the U.S. government's official web portal to all federal, state and local government web resources and services.